Regional Weather Roundup
Issued by NWS

Home | Current Version | Previous Version | Text Only | Print | Product List | Glossary Off
Versions: 1 2 3 4 5 6 7 8 9 10 11 12 13 14 15 16 17 18 19 20 21 22 23 24 25 26 27 28 29 30 31 32 33 34 35 36 37 38 39 40 41 42 43 44 45 46 47 48 49 50

000
ASUS44 KMEG 210710
RWRTN
TENNESSEE HOURLY STATE WEATHER ROUNDUP
NATIONAL WEATHER SERVICE MEMPHIS TN
200 AM CDT MON AUG 21 2017

TNZ002-004-019-021-049-052-054-088>092-210800-
WEST TENNESSEE

CITY           SKY/WX    TMP DP  RH WIND       PRES   REMARKS
MEMPHIS INTL   CLEAR     78  73  84 CALM      30.09S
NWS MEMPHIS      N/A     75 N/A N/A MISG        N/A
JACKSON        FOG       72  72 100 CALM      30.09F VSB 1
DYERSBURG      PTCLDY    77  76  96 SE3       30.10R
SOMERVILLE     CLEAR     75  73  94 CALM      30.09S
COVINGTON      CLEAR     75  73  94 SW5       30.09S
UNION CITY     CLEAR     68  68 100 CALM      30.09S
BOLIVAR        FOG       73  72  94 CALM      30.09F VSB 1/4
PARIS          CLEAR     70  68  94 CALM      30.10S
HUNTINGDON     CLEAR     72  70  94 CALM      30.09S
LEXINGTON      CLEAR     70  70 100 CALM      30.10S
SELMER         CLEAR     72  70  94 CALM      30.11S
SAVANNAH       MOCLDY    72  70  94 CALM      30.10S
$$

TNZ008-025-027-028-033-062-065-066-210800-
NORTH MIDDLE TENNESSEE

CITY           SKY/WX    TMP DP  RH WIND       PRES   REMARKS
NASHVILLE      PTCLDY    74  69  85 SE3       30.12F
PORTLAND       CLEAR     70  68  94 S5        30.12S
CLARKSVILLE    CLOUDY    71  68  90 CALM      30.11S
SMYRNA         CLEAR     71  70  96 CALM      30.13F
COOKEVILLE     FOG       66  66 100 CALM      30.16S VSB 1/4
GALLATIN       CLEAR     70  68  94 CALM      30.15S
CROSSVILLE     CLEAR     66  65  96 CALM      30.22S
$$

TNZ061-075-076-078-094-096-097-210800-
SOUTH MIDDLE TENNESSEE

CITY           SKY/WX    TMP DP  RH WIND       PRES   REMARKS
FAYETTEVILLE   CLEAR     72  70  94 CALM      30.15R
TULLAHOMA      CLEAR     70  66  88 CALM      30.17S
WINCHESTER     CLEAR     70  66  88 CALM      30.17R
MCMINNVILLE    CLOUDY    70  70 100 CALM      30.16F VSB 3/4
COLUMBIA       CLEAR     70  70 100 CALM      30.11F
SHELBYVILLE    PTCLDY    70  70 100 CALM      30.14S
$$

TNZ017-018-042-046-047-210800-
NORTHEAST TENNESSEE

CITY           SKY/WX    TMP DP  RH WIND       PRES   REMARKS
TRI CITIES     MOCLDY    68  67  96 CALM      30.21R
ELIZABETHTON   CLEAR     70  66  88 CALM      30.22S
$$

TNZ012-013-036-069-073-074-210800-
CENTRAL EAST TENNESSEE

CITY           SKY/WX    TMP DP  RH WIND       PRES   REMARKS
KNOXVILLE      CLEAR     71  67  87 CALM      30.16R
OAK RIDGE      CLEAR     72  69  90 CALM      30.18S
DOWNTOWN KNOXV   N/A     70  70 100 CALM      30.16S
GATLINBURG     CLEAR     70  66  88 CALM      30.17R
MORRISTOWN     CLEAR     70  66  88 CALM      30.18R
JACKSBORO      CLEAR     68  68 100 CALM      30.21S FOG
$$

TNZ083-085-099-210800-
SOUTHEAST TENNESSEE

CITY           SKY/WX    TMP DP  RH WIND       PRES   REMARKS
CHATTANOOGA    CLEAR     72  69  90 W3        30.16R
DAYTON         CLOUDY    70  70 100 CALM      30.14F FOG
$$

SKY/WX REPORTED AS FAIR MEANS FEW OR NO CLOUDS BELOW
12 THOUSAND FEET.





USA.gov is the U.S. government's official web portal to all federal, state and local government web resources and services.